Ypsilanti, MI

3:51 AM EST on January 20, 2017 (GMT -0500)
Willow Run

Weather History for KYIP - August, 2014

Change the Weather History Date:

Tuesday, August 26, 2014

  Actual Average Record
Temperature  
Mean Temperature 82 °F -  
Max Temperature 93 °F 82 °F 93 °F (1949)
Min Temperature 72 °F 61 °F 48 °F (2008)
Cooling Degree Days 18    
Growing Degree Days 32 (Base 50)    
Moisture  
Dew Point 69 °F    
Average Humidity 74    
Maximum Humidity 85    
Minimum Humidity 48    
Precipitation  
Precipitation 0.05 in - - ()
Sea Level Pressure  
Sea Level Pressure 30.05 in    
Wind  
Wind Speed 7 mph (WSW)    
Max Wind Speed 36 mph    
Max Gust Speed 53 mph    
Visibility 8 miles    
Events Rain    
Averages and records for this station are not official NWS values.
T = Trace of Precipitation, MM = Missing Value Source: NWS Daily Summary

Daily Weather History Graph

Daily Weather History Graph

Search for Another Location

Airport or City:

Trip Planner

Search our weather history database for the weather conditions in past years. The results will help you decide how hot, cold, wet, or windy it might be!

Date:

Astronomy

Aug. 26, 2014 Rise Set
Actual Time 6:53 AM EDT 8:17 PM EDT
Civil Twilight 6:23 AM EDT 8:47 PM EDT
Nautical Twilight 5:48 AM EDT 9:22 PM EDT
Astronomical Twilight 5:11 AM EDT 9:59 PM EDT
Moon 7:54 AM EDT (8/26) 8:36 PM EDT (8/26)
Length of Visible Light 14h 23m
Length of Day
13h 24m
New Moon, 1% of the Moon is Illuminated
Aug 26
New Moon
Sep 2
First Quarter
Sep 8
Full
Sep 15
Last Quarter
Sep 24
New

Hourly Weather History & Observations

Time (EDT) Temp. Heat Index Dew Point Humidity Pressure Visibility Wind Dir Wind Speed Gust Speed Precip Events Conditions
12:53 AM 75.9 °F - 69.1 °F 79% 30.04 in 6.0 mi South 3.5 mph - N/A   Haze
1:53 AM 75.0 °F - 69.1 °F 82% 30.04 in 5.0 mi SSW 3.5 mph - N/A   Haze
2:53 AM 73.9 °F - 68.0 °F 82% 30.03 in 2.5 mi South 4.6 mph - N/A   Haze
3:07 AM 72.0 °F - 66.9 °F 84% 30.05 in 5.0 mi SSW 3.5 mph - N/A   Haze
3:53 AM 73.9 °F - 69.1 °F 85% 30.03 in 5.0 mi South 4.6 mph - N/A   Haze
5:53 AM 73.9 °F - 68.0 °F 82% 30.03 in 4.0 mi SW 4.6 mph - N/A   Haze
6:53 AM 73.9 °F - 68.0 °F 82% 30.05 in 3.0 mi WSW 6.9 mph - N/A   Haze
8:53 AM 78.1 °F - 68.0 °F 71% 30.07 in 10.0 mi SW 5.8 mph - N/A   Clear
9:53 AM 81.0 °F 83.8 °F 68.0 °F 65% 30.08 in 10.0 mi SW 8.1 mph - N/A   Scattered Clouds
11:53 AM 87.1 °F 90.6 °F 68.0 °F 53% 30.08 in 10.0 mi West 6.9 mph - N/A   Clear
12:53 PM 90.0 °F 94.5 °F 69.1 °F 50% 30.05 in 10.0 mi WSW 5.8 mph - N/A   Clear
1:53 PM 91.9 °F 97.4 °F 70.0 °F 48% 30.04 in 10.0 mi WSW 9.2 mph - N/A   Clear
2:53 PM 93.0 °F 100.1 °F 71.1 °F 49% 30.03 in 10.0 mi SW 11.5 mph 17.3 mph N/A   Clear
3:53 PM 91.9 °F 98.4 °F 71.1 °F 50% 30.03 in 10.0 mi WSW 12.7 mph - N/A   Scattered Clouds
4:37 PM 82.0 °F 85.5 °F 69.1 °F 65% 30.09 in 1.5 mi NW 35.7 mph 52.9 mph 0.07 in Rain Light Rain
4:51 PM 75.2 °F - 68.0 °F 78% 30.12 in 3.0 mi NW 19.6 mph 42.6 mph 0.19 in Rain Light Rain
5:53 PM 75.0 °F - 68.0 °F 79% 30.03 in 10.0 mi NW 4.6 mph - 0.05 in Rain Light Rain
6:53 PM 75.9 °F - 70.0 °F 82% 30.02 in 10.0 mi SE 5.8 mph - 0.00 in   Partly Cloudy
7:53 PM 75.9 °F - 69.1 °F 79% 30.04 in 10.0 mi Calm Calm - N/A   Clear
8:53 PM 75.0 °F - 69.1 °F 82% 30.04 in 10.0 mi SW 3.5 mph - N/A   Clear
9:53 PM 73.9 °F - 69.1 °F 85% 30.05 in 10.0 mi WSW 4.6 mph - N/A   Clear
10:53 PM 73.9 °F - 68.0 °F 82% 30.06 in 10.0 mi NNW 5.8 mph - N/A   Clear
11:02 PM 73.9 °F - 68.0 °F 82% 30.08 in 10.0 mi NW 6.9 mph - N/A   Scattered Clouds
11:10 PM 73.9 °F - 68.0 °F 82% 30.08 in 10.0 mi NW 9.2 mph - N/A   Mostly Cloudy
11:49 PM 73.4 °F - 68.0 °F 83% 30.08 in 10.0 mi WNW 10.4 mph - N/A   Scattered Clouds
11:53 PM 73.9 °F - 68.0 °F 82% 30.06 in 10.0 mi NW 11.5 mph - N/A   Partly Cloudy